Location: Pinawa
(50.1500°N, 95.8830°W)
Time: 11:10:22
(UTC-05:00)

Daily predictions for brighter satellites

Satellite Brightness Start Highest point End
(mag) Time Altitude Azimuth Time Altitude Azimuth Time Altitude Azimuth
Cosmos 1943 Rocket 3.4 21:53:49 10° NNW 21:58:43 31° NE 22:03:36 10° ESE
Cosmos 1943 4.2 21:54:30 10° SSE 21:59:05 26° ESE 22:03:43 10° NE
Okean 2 4.2 21:55:00 10° SSW 21:59:08 57° WNW 22:03:16 10° N
Nimbus 7 Rocket 4.4 21:54:27 10° NNE 22:00:27 73° ESE 22:06:21 10° S
MetOp-A 4.2 21:57:13 10° SSE 22:02:34 79° ENE 22:07:57 10° NNW
H-2A R/B 3.3 21:58:38 10° ESE 22:02:46 27° ENE 22:07:00 10° N
Aureole 2 Rocket 2.7 21:59:00 10° SSW 22:02:48 76° WNW 22:06:15 10° NNE
UNK 4.4 22:00:17 10° NNE 22:05:33 53° ESE 22:11:03 10° S
Lacrosse 4 Rocket 3.2 22:03:59 10° SE 22:05:54 13° ESE 22:07:49 10° ENE
SeaSat 1 2.9 22:05:29 10° SSE 22:10:22 62° WSW 22:15:17 10° NW
SPOT 1/Viking Rocket 3.6 22:06:12 10° SSE 22:11:19 69° ENE 22:16:27 10° N
CZ-2C R/B 3.7 22:10:52 10° WSW 22:11:33 11° W 22:12:13 10° WNW
CZ-4B R/B 3.7 22:09:42 10° NNE 22:14:39 51° E 22:19:41 10° S
Cosmos 1766 4.2 22:19:24 10° N 22:23:05 34° ENE 22:26:30 12° SE
Cosmos 1238 4.1 22:20:10 10° S 22:23:14 77° E 22:26:17 10° NNE
DELTA 2 DEB (DPAF) 4.4 22:22:59 10° SSE 22:27:20 56° ENE 22:31:45 10° N
Cosmos 1758 Rocket 4.3 22:27:03 10° SSE 22:30:58 34° E 22:34:56 10° NNE
CARTOSAT-1 4.3 22:31:25 12° SE 22:35:07 41° ENE 22:39:12 10° N
Cosmos 2369 Rocket 2.3 22:32:31 10° NNW 22:38:13 76° WSW 22:43:27 12° SSE
ARGOS 3.2 22:33:25 10° SSE 22:38:51 89° WSW 22:44:20 10° NNW
Tsikada Rocket 4.5 22:33:35 10° SSW 22:39:57 66° WNW 22:46:19 10° N
ATLAS 3B R/B 3.3 22:34:02 10° S 22:41:10 43° ESE 22:48:09 10° NE
Cosmos 1825 Rocket 3.5 22:43:57 10° S 22:48:25 83° E 22:52:52 10° NNE
CZ-4C R/B 3.4 22:46:15 13° SSE 22:50:00 90° NE 22:54:02 10° NNW
SL-16 R/B 4.1 22:45:31 10° WSW 22:50:38 34° NW 22:55:47 10° NNE
ISS -2.7 22:48:14 10° SSW 22:51:12 32° SSE 22:54:11 10° E
Atlas Centaur 2 4.3 22:47:07 10° SSW 22:52:03 18° S 22:55:21 14° SSE
ATLAS CENTAUR R/B 4.4 22:49:29 10° W 22:53:43 26° NNW 22:57:54 10° NNE
USA 234 3.8 22:48:30 13° SSE 22:54:07 46° SW 23:00:26 10° WNW
SL-8 R/B 3.7 22:49:29 10° W 22:54:19 72° S 22:59:09 10° ESE
NOAA 11 4.3 22:49:51 11° S 22:55:07 73° WSW 23:00:34 10° NNW
SL-27 R/B 4.1 22:54:51 15° ESE 22:55:36 16° E 22:57:47 10° ENE
Cosmos 1805 4.3 22:52:23 10° N 22:56:01 33° ENE 22:58:32 17° SE
Cosmos 407 Rocket 3.7 22:51:58 10° S 22:57:03 52° ESE 23:02:07 10° NNE
CZ-4 R/B 3.9 22:52:28 10° NNE 22:57:29 84° ESE 23:02:31 10° SSW
SL-08 RB Rocket 4.1 22:59:24 12° S 23:03:33 61° WSW 23:08:03 10° NNW
Cosmos 1953 2.7 23:00:11 10° N 23:04:05 49° ENE 23:06:37 20° SE
Cosmos 2263 4.4 22:58:50 10° NNW 23:04:24 66° WSW 23:08:56 16° SSE
Lacrosse 5 rocket 3.0 23:04:31 10° W 23:08:17 36° NNW 23:12:14 10° NE
Cosmos 2208 Rocket 4.4 23:04:32 10° NNW 23:09:37 52° ENE 23:13:24 17° SE
Landsat 7 4.0 23:06:30 15° S 23:10:27 72° WSW 23:15:14 10° NNW
COSMOS 2406 4.3 23:09:28 18° SE 23:12:24 27° ESE 23:17:07 10° NE
Spot 4 3.9 23:09:15 18° SSE 23:12:45 74° ENE 23:17:34 10° NNW
Cosmos 1954 Rocket 4.4 23:12:38 16° S 23:16:37 46° ESE 23:21:39 10° NE
COSMOS 2455 3.2 23:11:35 10° SW 23:17:36 71° NW 23:23:39 10° NNE
USA 238 DEB 4.5 23:13:44 15° S 23:18:37 32° ESE 23:24:45 10° NE
USA 238 4.5 23:13:54 15° SSE 23:18:44 32° ESE 23:24:50 10° NE
CZ-4B R/B 4.1 23:18:31 10° E 23:19:53 12° ENE 23:21:17 10° NE
Lacrosse 5 3.3 23:19:39 10° WNW 23:24:25 38° N 23:29:08 10° ENE
Terra 2.0 23:22:47 18° S 23:26:15 72° WSW 23:31:02 10° NNW
CZ-4C R/B 4.2 23:27:03 10° ESE 23:27:28 10° ESE 23:27:52 10° E
Cosmos 1544 3.9 23:24:36 10° N 23:28:11 39° ENE 23:29:59 24° SE
Cosmos 1346 Rocket 3.5 23:24:36 10° SSW 23:28:26 53° WNW 23:32:19 10° N
Kosmos-1675 4.5 23:26:30 14° SSW 23:29:29 62° ESE 23:42:54 10° NE
IGS 5A 3.6 23:27:36 21° S 23:30:19 68° WSW 23:34:30 10° NNW
BREEZE-M DEB (TANK) 1.8 23:29:27 10° WSW 23:35:14 - E 23:31:28 43° S
Cosmos 2084 3.4 23:28:06 10° NW 23:32:11 72° SW 23:34:32 25° SSE
Cosmos 1953 Rocket 4.5 23:30:20 10° SSW 23:34:35 47° WNW 23:38:55 10° N
Cosmos 2279 Rocket 4.4 23:30:11 10° NNW 23:36:19 59° W 23:41:33 15° SSW
Cosmos 1707 4.5 23:35:25 17° ESE 23:36:36 20° E 23:39:28 10° NE
H-2A R/B 4.4 23:36:54 10° ENE 23:38:41 13° E 23:39:24 12° ESE
Geosat 4.0 23:35:43 10° NNE 23:40:48 87° WNW 23:45:50 10° SSW
H-2A R/B 2.6 23:38:18 17° S 23:41:55 51° W 23:46:54 10° NNW
Cosmos 1842 3.4 23:39:23 19° SSW 23:42:06 75° W 23:46:03 10° N
Cosmos 2221 3.8 23:38:48 10° N 23:42:38 30° ENE 23:44:51 19° ESE
Cosmos 1943 3.7 23:37:06 10° SW 23:42:43 62° WNW 23:48:25 10° NNE
Cosmos 1943 Rocket 2.4 23:37:22 10° NW 23:42:49 59° WSW 23:46:20 22° S
Lacrosse 4 Rocket 1.4 23:39:56 10° SW 23:44:00 80° NW 23:48:09 10° NNE
Cosmos-2242 3.6 23:41:24 10° NNW 23:45:42 53° W 23:48:32 20° SSW
Cosmos 1570 Rocket 4.1 23:41:23 10° NNW 23:46:46 80° WSW 23:50:00 25° SSE
Cosmos 1758 3.8 23:45:46 10° NNW 23:49:49 57° W 23:52:08 24° SSW
Cosmos 1900 4.4 23:47:19 10° SW 23:52:29 89° SE 23:57:39 10° NE
Cosmos 1850 Rocket 4.3 23:50:15 25° SSE 23:53:01 48° ESE 23:58:01 10° NNE
Cosmos 1932 4.5 23:47:33 13° SSW 23:53:01 59° ESE 23:59:10 10° NE
